{"data":{"norad_id":49752,"epoch":"2026-09-19T22:04:17.652000Z","epoch_age_seconds":94776,"freshness":"FRESH","line1":"1 49752U 21115AE  26262.91964875  .00000445  00000+0  24309-4 0  9998","line2":"2 49752  53.1612 332.0972 0001292  84.5590 275.5560 15.34387646265200","mean_motion":15.34387646,"eccentricity":0.0001292,"inclination_deg":53.1612,"raan_deg":332.0972,"arg_perigee_deg":84.559,"mean_anomaly_deg":275.556,"bstar":2.4309e-5,"rev_number":26520,"period_min":93.848513689089,"perigee_km":461.85611784184,"apogee_km":463.62380044808,"semimajor_km":6840.876959145,"source":"CELESTRAK","updated_at":"2026-09-20T09:00:39.408835Z"}}